Location: Bamazo
(6.7448°N, 10.8189°W)
Time: 00:59:11
(UTC+00:00)

Cosmos 1844 - Pass Details

Date: 18 September 2020
Orbit: 824 x 866 km, 70.9° (Epoch: 21 October)

Event Time Altitude Azimuth Distance (km) Brightness Sun altitude
Rises 19:13:57 0° 175° (S) 3,439 6.8 -9.0°
Reaches altitude 10° 19:16:43 10° 164° (SSE) 2,499 6.0 -9.6°
Maximum altitude 19:21:41 30° 104° (ESE) 1,485 4.4 -10.9°
Drops below altitude 10° 19:26:35 10° 45° (NE) 2,478 5.7 -12.1°
Sets 19:29:18 0° 34° (NE) 3,406 6.5 -12.8°
